When you browse on this site, cookies collect data to enhance your experience and personalize the content and advertising you see.
Visit our Privacy Policy to learn more. By continuing to use the site, you agree to this use of cookies and data.
  • In United Kingdom
  • List of Countries
  • For 7 days
  • Water Temperature
  • Weather Map
  • Weather Widgets
  • user-avatar
    Login

    Hourly Weather Harpenden

    Today, 21 September, Saturday

    Time Temperature Precipitation Wind Pressure Humidity
    00:00 +13°C° 0 mm 5 mps 752 mmHg 66%
    01:00 +13°C° 0 mm 4 mps 751 mmHg 67%
    02:00 +13°C° 0 mm 4 mps 751 mmHg 67%
    03:00 +12°C° 0 mm 4 mps 750 mmHg 67%
    04:00 +12°C° 0 mm 4 mps 750 mmHg 68%
    05:00 +12°C° 0 mm 4 mps 749 mmHg 68%
    06:00 +10°C° 0 mm 5 mps 749 mmHg 68%
    07:00 +13°C° 0 mm 5 mps 749 mmHg 64%
    08:00 +14°C° 0 mm 5 mps 749 mmHg 60%
    09:00 +16°C° 0 mm 5 mps 748 mmHg 56%
    10:00 +17°C° 0 mm 5 mps 748 mmHg 53%
    11:00 +20°C° 0 mm 5 mps 748 mmHg 51%
    12:00 +21°C° 0 mm 5 mps 747 mmHg 48%
    13:00 +22°C° 0 mm 5 mps 747 mmHg 48%
    14:00 +22°C° 0 mm 5 mps 746 mmHg 49%
    15:00 +23°C° 0 mm 5 mps 746 mmHg 49%
    16:00 +21°C° 0 mm 5 mps 745 mmHg 54%
    17:00 +20°C° 0 mm 4 mps 745 mmHg 59%
    18:00 +19°C° 0 mm 4 mps 744 mmHg 65%
    19:00 +18°C° 0 mm 4 mps 744 mmHg 66%
    20:00 +18°C° 0 mm 4 mps 744 mmHg 68%
    21:00 +18°C° 0 mm 4 mps 744 mmHg 70%
    22:00 +18°C° 0 mm 4 mps 743 mmHg 72%
    23:00 +18°C° 0 mm 4 mps 743 mmHg 73%

    Tomorrow, 22 September, Sunday

    Time Temperature Precipitation Wind Pressure Humidity
    00:00 +18°C° 0 mm 3 mps 743 mmHg 75%
    01:00 +18°C° 0.1 mm 3 mps 742 mmHg 76%
    02:00 +18°C° 0.1 mm 3 mps 742 mmHg 77%
    03:00 +18°C° 0.1 mm 3 mps 741 mmHg 78%
    04:00 +18°C° 0.1 mm 3 mps 741 mmHg 80%
    05:00 +17°C° 0.1 mm 3 mps 741 mmHg 82%
    06:00 +17°C° 0.1 mm 3 mps 740 mmHg 85%
    07:00 +18°C° 0 mm 4 mps 740 mmHg 82%
    08:00 +19°C° 0 mm 5 mps 740 mmHg 80%
    09:00 +20°C° 0 mm 6 mps 740 mmHg 78%
    10:00 +19°C° 0.6 mm 5 mps 741 mmHg 79%
    11:00 +16°C° 0.6 mm 5 mps 741 mmHg 80%
    12:00 +15°C° 0.6 mm 4 mps 741 mmHg 81%
    13:00 +16°C° 0.1 mm 5 mps 741 mmHg 77%
    14:00 +17°C° 0.1 mm 5 mps 741 mmHg 73%
    15:00 +17°C° 0.1 mm 5 mps 741 mmHg 70%
    16:00 +17°C° 0 mm 5 mps 741 mmHg 72%
    17:00 +16°C° 0 mm 5 mps 741 mmHg 74%
    18:00 +15°C° 0 mm 4 mps 741 mmHg 76%
    19:00 +15°C° 0 mm 4 mps 741 mmHg 79%
    20:00 +14°C° 0 mm 4 mps 742 mmHg 82%
    21:00 +14°C° 0 mm 4 mps 742 mmHg 86%
    22:00 +13°C° 0 mm 4 mps 742 mmHg 87%
    23:00 +13°C° 0 mm 5 mps 742 mmHg 89%

    Day after tomorrow, 23 September, Monday

    Time Temperature Precipitation Wind Pressure Humidity
    00:00 +12°C° 0 mm 5 mps 743 mmHg 90%
    01:00 +12°C° 0 mm 5 mps 743 mmHg 88%
    02:00 +12°C° 0 mm 5 mps 743 mmHg 86%
    03:00 +12°C° 0 mm 5 mps 744 mmHg 83%
    04:00 +10°C° 0 mm 5 mps 744 mmHg 84%
    05:00 +11°C° 0 mm 4 mps 744 mmHg 85%
    06:00 +10°C° 0 mm 4 mps 744 mmHg 86%
    07:00 +12°C° 0 mm 4 mps 745 mmHg 82%
    08:00 +14°C° 0 mm 5 mps 745 mmHg 78%
    09:00 +15°C° 0 mm 5 mps 745 mmHg 74%
    10:00 +16°C° 0.2 mm 6 mps 745 mmHg 69%
    11:00 +17°C° 0.2 mm 6 mps 745 mmHg 64%
    12:00 +18°C° 0.2 mm 7 mps 745 mmHg 59%
    13:00 +18°C° 0.1 mm 7 mps 745 mmHg 62%
    14:00 +17°C° 0.1 mm 7 mps 744 mmHg 65%
    15:00 +17°C° 0.1 mm 6 mps 744 mmHg 68%
    16:00 +16°C° 1.1 mm 6 mps 743 mmHg 74%
    17:00 +15°C° 1.1 mm 6 mps 743 mmHg 81%
    18:00 +14°C° 1.1 mm 6 mps 742 mmHg 88%
    19:00 +14°C° 1.3 mm 6 mps 742 mmHg 89%
    20:00 +15°C° 1.3 mm 7 mps 742 mmHg 90%
    21:00 +15°C° 1.3 mm 7 mps 742 mmHg 91%
    22:00 +15°C° 1.3 mm 6 mps 742 mmHg 91%
    23:00 +16°C° 1.3 mm 6 mps 741 mmHg 92%

    24 September, Tuesday

    Time Temperature Precipitation Wind Pressure Humidity
    00:00 +16°C° 1.3 mm 5 mps 741 mmHg 92%
    01:00 +16°C° 0.3 mm 5 mps 741 mmHg 92%
    02:00 +16°C° 0.3 mm 5 mps 741 mmHg 91%
    03:00 +16°C° 0.3 mm 5 mps 740 mmHg 91%
    04:00 +16°C° 0.2 mm 5 mps 740 mmHg 92%
    05:00 +15°C° 0.2 mm 4 mps 739 mmHg 92%
    06:00 +15°C° 0.2 mm 4 mps 739 mmHg 93%
    07:00 +15°C° 3.1 mm 5 mps 739 mmHg 92%
    08:00 +16°C° 3.1 mm 6 mps 738 mmHg 91%
    09:00 +16°C° 3.1 mm 6 mps 738 mmHg 90%
    10:00 +17°C° 0.5 mm 7 mps 738 mmHg 82%
    11:00 +17°C° 0.5 mm 7 mps 738 mmHg 75%
    12:00 +18°C° 0.5 mm 8 mps 738 mmHg 67%
    13:00 +18°C° 0.1 mm 8 mps 738 mmHg 67%
    14:00 +18°C° 0.1 mm 8 mps 738 mmHg 66%
    15:00 +17°C° 0.1 mm 8 mps 738 mmHg 66%
    16:00 +16°C° 0.1 mm 8 mps 738 mmHg 69%
    17:00 +15°C° 0.1 mm 8 mps 737 mmHg 72%
    18:00 +14°C° 0.1 mm 7 mps 737 mmHg 75%
    19:00 +14°C° 0.1 mm 7 mps 737 mmHg 77%
    20:00 +14°C° 0.1 mm 7 mps 737 mmHg 80%
    21:00 +14°C° 0.1 mm 7 mps 737 mmHg 82%
    22:00 +14°C° 0 mm 7 mps 736 mmHg 81%
    23:00 +14°C° 0 mm 7 mps 736 mmHg 80%

    25 September, Wednesday

    Time Temperature Precipitation Wind Pressure Humidity
    00:00 +13°C° 0 mm 8 mps 735 mmHg 79%
    01:00 +13°C° 0.1 mm 8 mps 735 mmHg 81%
    02:00 +12°C° 0.1 mm 7 mps 735 mmHg 83%
    03:00 +12°C° 0.1 mm 7 mps 735 mmHg 85%
    04:00 +12°C° 0.1 mm 7 mps 735 mmHg 86%
    05:00 +12°C° 0.1 mm 7 mps 736 mmHg 87%
    06:00 +13°C° 0.1 mm 6 mps 736 mmHg 88%
    07:00 +13°C° 0.7 mm 6 mps 736 mmHg 86%
    08:00 +13°C° 0.7 mm 6 mps 737 mmHg 85%
    09:00 +14°C° 0.7 mm 6 mps 737 mmHg 83%
    10:00 +14°C° 0.7 mm 7 mps 738 mmHg 80%
    11:00 +15°C° 0.7 mm 7 mps 738 mmHg 77%
    12:00 +15°C° 0.7 mm 8 mps 738 mmHg 74%
    13:00 +16°C° 0.2 mm 8 mps 739 mmHg 73%
    14:00 +16°C° 0.2 mm 8 mps 739 mmHg 71%
    15:00 +16°C° 0.2 mm 8 mps 739 mmHg 70%
    16:00 +15°C° 0.4 mm 7 mps 738 mmHg 76%
    17:00 +14°C° 0.4 mm 5 mps 738 mmHg 82%
    18:00 +13°C° 0.4 mm 4 mps 738 mmHg 87%
    19:00 +13°C° 0.8 mm 4 mps 738 mmHg 90%
    20:00 +13°C° 0.8 mm 3 mps 738 mmHg 93%
    21:00 +14°C° 0.8 mm 2 mps 738 mmHg 95%
    22:00 +14°C° 0.7 mm 3 mps 737 mmHg 95%
    23:00 +14°C° 0.7 mm 3 mps 737 mmHg 94%

    26 September, Thursday

    Time Temperature Precipitation Wind Pressure Humidity
    00:00 +14°C° 0.7 mm 4 mps 736 mmHg 94%
    01:00 +15°C° 0.6 mm 5 mps 736 mmHg 93%
    02:00 +15°C° 0.6 mm 5 mps 736 mmHg 93%
    03:00 +15°C° 0.6 mm 6 mps 735 mmHg 93%
    04:00 +15°C° 0.4 mm 6 mps 735 mmHg 92%
    05:00 +16°C° 0.4 mm 7 mps 735 mmHg 90%
    06:00 +16°C° 0.4 mm 7 mps 735 mmHg 89%
    07:00 +16°C° 0.2 mm 7 mps 735 mmHg 86%
    08:00 +16°C° 0.2 mm 7 mps 735 mmHg 83%
    09:00 +17°C° 0.2 mm 7 mps 736 mmHg 81%
    10:00 +17°C° 0.3 mm 8 mps 736 mmHg 76%
    11:00 +18°C° 0.3 mm 8 mps 736 mmHg 71%
    12:00 +18°C° 0.3 mm 9 mps 736 mmHg 67%
    13:00 +18°C° 0.2 mm 9 mps 736 mmHg 65%
    14:00 +17°C° 0.2 mm 9 mps 736 mmHg 64%
    15:00 +16°C° 0.2 mm 8 mps 736 mmHg 63%
    16:00 +15°C° 0.1 mm 8 mps 736 mmHg 67%
    17:00 +14°C° 0.1 mm 7 mps 737 mmHg 72%
    18:00 +13°C° 0.1 mm 6 mps 737 mmHg 76%
    19:00 +13°C° 0 mm 6 mps 737 mmHg 77%
    20:00 +12°C° 0 mm 7 mps 737 mmHg 78%
    21:00 +11°C° 0 mm 7 mps 737 mmHg 78%
    22:00 +11°C° 0 mm 7 mps 737 mmHg 79%
    23:00 +11°C° 0 mm 7 mps 737 mmHg 80%
    Show more